SCP
0 0 0 0 0 0 0 0 1 2 2 2 2 2 1 1 1 1 1 0 0 0 0 0 0 0 0 0 0 0 0 0 0 0 0 0 0 0 0 0 0 0 0
0 0 0 0 0 0 0 0 1 1 2 2 1 1 1 0 0 0 0 0 0 0 0 0 0 0 0 0 0 0 0 0 0 0 0 0 0 0 0 0 0 0 0
0 0 0 0 0 0 0 0 1 1 1 1 1 0 0 0 0 0 0 0 0 0 0 0 0 0 0 0 0 0 0 0 0 0 0 0 0 0 0 0 0 0 0
0 0 0 0 0 0 0 1 1 1 1 1 0 0 0 0 0 0 0 0 0 0 0 0 0 0 0 0 0 0 0 0 0 0 0 0 0 0 0 0 0 0 0
0 0 0 0 0 0 0 0 1 1 0 0 0 0 0 0 0 0 0 0 0 0 0 0 0 0 0 0 0 0 0 0 0 0 0 0 0 0 0 0 0 0 0
0 0 0 0 0 0 0 0 0 0 0 0 0 0 0 0 0 0 0 0 0 0 0 0 0 0 0 0 0 0 0 0 0 0 0 0 0 0 0 0 0 0 0
0 0 0 0 0 0 0 0 0 0 0 0 0 0 0 0 0 0 0 0 0 0 0 0 0 0 0 0 0 0 0 0 0 0 0 0 0 0 0 0 0 0 0
0 0 0 0 0 0 0 0 0 0 0 0 0 0 0 0 0 0 0 0 0 0 0 0 0 0 0 0 0 0 0 0 0 0 0 0 0 0 0 0 0 0 0
0 0 0 0 0 0 0 0 0 0 0 0 0 0 0 0 0 0 0 0 0 0 0 0 0 0 0 0 0 0 0 0 0 0 0 0 0 0 0 0 0 0 0
0 0 0 0 0 0 0 0 0 0 0 0 0 0 0 0 0 0 0 0 0 0 0 0 0 0 0 0 0 0 0 0 0 0 0 0 0 0 0 0 0 0 0
0 0 0 0 0 0 0 0 0 0 0 0 0 0 0 0 0 0 0 0 0 0 0 0 0 0 0 0 0 0 0 0 0 0 0 0 0 0 0 0 0 0 0
0 0 0 0 0 0 0 0 0 0 0 0 0 0 0 0 0 0 0 0 0 0 0 0 0 0 0 0 0 0 0 0 0 0 0 0 0 0 0 0 0 0 0
0 0 0 0 0 0 0 0 0 0 0 0 0 0 0 0 0 0 0 0 0 0 0 0 0 0 0 0 0 0 0 0 0 0 0 0 0 0 0 0 0 0 0
0 0 0 0 0 0 0 0 0 0 0 0 0 0 0 0 0 0 0 0 0 0 0 0 0 0 0 0 0 0 0 0 0 0 0 0 0 0 0 0 0 0 0
0 0 0 0 0 0 0 0 0 0 0 0 0 0 0 0 0 0 0 0 0 0 0 0 0 0 0 0 0 0 0 0 0 0 0 0 0 0 0 0 0 0 0
0 0 0 0 0 0 0 0 0 0 0 0 0 0 0 0 0 0 0 0 0 0 0 0 0 0 0 0 0 0 0 0 0 0 0 0 0 0 0 0 0 0 0
0 0 0 0 0 0 0 0 0 0 0 0 0 0 0 0 0 0 0 0 0 0 0 0 0 0 0 0 0 0 0 0 0 0 0 0 0 0 0 0 0 0 0
0 0 0 0 0 0 0 0 0 0 0 0 0 0 0 0 0 0 0 0 0 0 0 0 0 0 0 0 0 0 0 0 0 0 0 0 0 0 0 0 0 0 0
0 0 0 0 0 0 0 0 0 0 0 0 0 0 0 0 0 0 0 0 0 0 0 0 0 0 0 0 0 0 0 0 0 0 0 0 0 0 0 0 0 0 0
0 0 0 0 0 0 0 0 0 0 0 0 0 0 0 0 0 0 0 0 0 0 0 0 0 0 0 0 0 0 0 0 0 0 0 0 0 0 0 0 0 0 0
0 0 0 0 0 0 0 0 0 0 0 0 0 0 0 0 0 0 0 0 0 0 0 0 0 0 0 0 0 0 0 0 0 0 0 0 0 0 0 0 0 0 0
0 0 0 0 0 0 0 0 0 0 0 0 0 0 0 0 0 0 0 0 0 0 0 0 0 0 0 0 0 0 0 0 0 0 0 0 0 0 0 0 0 0 0
0 0 0 0 0 0 0 0 0 0 0 0 0 0 0 0 0 0 0 0 0 0 0 0 0 0 0 0 0 0 0 0 0 0 0 0 0 0 0 0 0 0 0
0 0 0 0 0 0 0 0 0 0 0 0 0 0 0 0 0 0 0 0 0 0 0 0 0 0 0 0 0 0 0 0 0 0 0 0 0 0 0 0 0 0 0
0 0 0 0 0 0 0 0 0 0 0 0 0 0 0 0 0 0 0 0 0 0 0 0 0 0 0 0 0 0 0 0 0 0 0 0 0 0 0 0 0 0 0
0 0 0 0 0 0 0 0 0 0 0 0 0 0 0 0 0 0 0 0 0 0 0 0 0 0 0 0 0 0 0 0 0 0 0 0 0 0 0 0 0 0 0
Wind_Speed
20 18 16 15 14 12 12 11 11 12 11 10 10 8 8 7 6 6 9 10 11 10 9 8 8 6 5 5 5 4 5 5 5 4 2 1 2 3 3 2 3 2 3
22 21 18 16 15 14 13 12 12 13 14 11 10 6 7 6 6 7 8 10 10 10 8 9 8 7 6 7 6 4 3 3 4 4 4 3 2 3 3 3 3 4 4
23 22 21 20 17 16 14 11 13 13 14 14 10 10 8 6 6 7 7 8 9 9 9 9 8 8 6 6 6 5 3 3 3 4 4 3 3 5 4 4 4 5 6
20 20 20 20 19 17 13 13 14 14 15 15 14 16 11 9 8 8 8 10 9 9 9 9 9 8 7 7 6 5 3 2 2 1 2 3 4 5 5 4 5 6 8
17 18 19 19 18 16 14 13 14 15 16 16 16 16 12 10 10 10 12 11 9 9 9 9 9 8 7 7 6 5 3 2 1 1 2 2 3 5 5 8 7 7 7
14 15 16 16 15 13 13 13 15 16 16 16 16 16 17 17 17 15 13 10 8 8 9 9 8 8 7 6 5 4 3 1 0 1 2 3 4 4 5 8 10 10 9
12 12 13 13 13 14 15 15 17 17 17 17 16 16 18 20 20 18 15 12 9 8 10 8 8 7 7 6 5 3 2 1 2 3 3 4 5 5 6 9 10 12 11
11 12 12 12 13 16 17 17 18 18 18 17 16 16 17 13 12 14 13 11 9 9 10 9 8 8 7 5 4 2 2 1 3 4 5 4 5 5 6 8 10 12 10
11 12 11 11 12 15 17 18 18 18 18 17 17 17 16 13 14 14 12 10 10 10 11 10 9 7 6 4 3 1 1 2 3 4 5 5 5 5 6 7 8 10 13
12 11 9 9 10 12 14 15 17 17 18 18 16 14 16 15 14 13 13 13 12 11 11 9 8 7 5 4 2 1 1 3 4 4 6 6 5 6 7 7 8 9 13
12 11 8 6 8 11 13 15 16 17 17 17 17 17 16 15 14 13 13 13 12 11 10 9 7 6 4 3 2 2 2 4 5 5 6 7 8 7 7 8 9 10 11
11 9 4 6 10 13 14 15 16 16 16 16 17 17 16 15 14 14 13 13 12 10 9 8 6 5 3 2 2 3 4 5 6 6 7 8 7 9 9 8 10 10 12
8 3 4 9 11 13 14 15 15 16 16 17 17 17 16 15 15 14 13 12 11 10 8 7 5 4 2 2 3 4 5 6 7 7 8 9 9 11 10 11 11 11 11
4 3 7 9 11 12 13 14 15 15 16 17 17 17 16 15 15 14 13 11 10 9 7 6 4 3 1 2 4 5 7 7 8 8 8 9 10 11 12 11 13 13 14
4 7 9 10 12 13 13 14 15 15 16 17 16 15 15 15 14 13 12 10 9 8 6 5 3 1 1 2 5 7 8 8 9 9 9 10 12 15 14 12 13 14 13
6 9 11 12 13 13 14 14 15 15 15 16 16 15 15 14 13 12 11 10 8 7 5 3 2 1 2 4 8 9 9 9 9 10 10 11 12 14 18 20 20 20 17
9 11 12 12 12 13 14 15 16 16 15 16 16 15 15 14 12 11 10 9 7 5 4 2 1 3 3 6 9 10 10 10 9 10 11 10 10 15 13 17 20 20 22
11 12 12 12 12 13 14 14 15 16 16 16 15 14 14 13 12 10 9 7 5 4 2 1 2 4 4 7 10 12 11 9 10 11 12 12 13 13 16 17 17 16 16
11 12 12 13 14 14 15 16 15 16 16 15 14 13 13 12 11 9 8 5 4 2 1 1 3 5 5 6 10 12 10 9 11 11 12 13 14 17 21 18 17 17 15
12 13 14 14 14 14 15 16 16 15 15 14 13 12 11 11 10 8 6 4 2 1 1 2 4 5 6 7 11 13 8 9 10 10 11 14 15 19 22 17 16 17 16
14 14 14 13 13 14 15 16 15 15 14 14 13 12 10 9 8 7 5 3 1 0 2 4 4 5 6 8 10 13 9 9 10 10 10 10 18 21 23 21 15 17 18
14 14 13 13 12 13 15 16 15 14 14 13 12 11 9 7 6 6 4 2 0 2 3 5 6 4 5 6 10 14 14 14 12 11 10 12 21 23 23 17 17 21 18
13 13 15 15 12 12 14 17 15 14 14 13 11 10 9 7 5 4 3 1 1 2 4 4 5 6 5 7 11 14 16 17 12 11 17 20 22 20 15 15 18 16 9
13 13 15 15 14 13 13 15 14 13 13 12 10 8 7 6 4 2 1 1 2 3 4 5 6 7 7 7 8 9 11 13 12 11 15 19 17 14 14 14 11 8 8
12 12 14 15 15 14 14 13 12 12 12 11 8 7 5 4 3 2 2 2 2 4 6 6 7 8 8 10 17 14 10 11 11 13 11 9 9 9 9 9 9 9 9
13 14 15 16 15 14 13 11 10 11 11 9 7 5 4 3 2 1 1 1 3 6 8 9 10 9 12 17 18 18 18 19 18 13 9 8 9 9 10 10 11 10 10
Wind_Direction
259 256 254 252 245 235 228 221 208 195 181 176 174 172 167 149 134 131 134 133 131 129 124 124 126 125 117 114 106 92 64 34 355 328 322 191 184 207 193 241 264 258 288
253 249 246 242 237 229 220 211 201 187 180 176 170 162 136 119 110 111 116 123 127 126 125 129 127 123 117 107 93 81 74 51 16 349 325 312 206 176 211 266 267 283 293
248 244 239 234 229 224 214 202 192 183 178 167 148 131 116 114 113 118 115 119 121 119 122 127 124 122 116 104 92 82 72 69 52 15 347 324 318 315 273 275 289 296 308
244 243 241 233 224 219 208 198 185 178 172 164 163 162 161 154 150 140 129 123 118 120 124 125 121 117 112 109 100 88 82 57 49 56 2 327 320 296 300 272 267 287 299
249 246 243 238 228 215 200 190 180 175 170 172 171 170 157 137 130 129 127 122 119 121 126 124 120 115 110 108 108 105 94 68 27 348 318 288 271 268 282 294 302 298 292
262 257 252 242 231 211 194 184 177 173 171 172 170 165 149 143 141 141 136 131 128 128 128 125 120 118 115 116 117 117 117 111 104 293 292 297 293 294 286 290 300 302 303
278 268 257 239 220 201 190 183 176 171 169 168 167 158 154 151 150 148 146 143 141 141 138 133 127 121 120 123 129 133 141 175 248 274 284 281 279 288 284 286 295 297 299
288 280 262 238 214 198 189 182 176 168 166 163 157 151 149 147 145 146 145 143 140 138 137 132 127 125 129 134 141 150 173 229 260 272 281 282 279 280 281 288 298 299 293
296 293 273 240 213 197 188 181 171 164 161 155 148 146 146 142 141 140 137 131 131 134 135 132 130 131 134 140 158 180 204 252 271 281 280 281 284 282 282 282 284 291 298
304 304 281 239 208 191 181 172 164 157 152 147 143 141 140 138 138 137 136 134 133 134 135 135 135 137 140 150 174 208 243 272 282 289 289 291 289 289 285 282 282 280 286
310 307 285 222 186 171 166 160 153 148 145 142 138 136 136 137 136 133 132 132 133 135 136 137 139 141 146 160 198 243 265 281 288 287 290 293 297 294 292 289 285 283 284
306 301 259 171 161 158 156 151 147 143 140 137 135 133 134 135 132 130 131 131 131 132 133 136 137 137 147 184 242 268 277 286 291 294 293 295 299 295 293 290 288 287 287
303 278 162 154 153 151 148 145 141 137 135 134 132 132 134 133 131 130 130 129 128 129 132 135 136 139 157 225 268 282 286 287 289 292 294 297 299 297 296 296 292 290 289
276 178 150 147 145 144 142 138 134 134 134 133 132 132 132 130 128 127 127 127 129 130 132 131 130 140 188 253 277 286 288 288 288 288 289 292 294 297 299 296 294 294 295
199 159 148 141 139 138 135 133 131 133 134 131 128 126 125 124 124 124 124 125 124 125 128 131 138 168 252 285 301 295 291 291 292 290 288 288 292 294 295 295 297 300 297
170 151 144 141 141 139 136 133 132 133 131 127 124 124 125 124 124 124 125 124 124 127 132 138 157 241 288 313 302 305 300 294 292 295 296 296 293 294 298 299 299 296 293
154 148 146 144 141 140 138 135 132 130 126 123 123 125 125 124 124 125 126 128 129 133 143 153 240 287 311 308 308 309 301 296 296 298 298 299 298 303 301 300 297 294 291
142 141 138 135 132 131 130 128 127 125 123 122 123 125 125 124 126 127 126 127 130 139 153 201 292 299 308 312 312 311 300 295 294 296 299 300 303 304 306 303 300 297 296
130 129 130 129 127 129 130 127 123 123 122 123 125 127 127 127 128 128 127 128 135 143 178 280 294 299 306 316 313 315 308 298 299 300 299 300 299 303 307 305 303 302 300
113 118 122 123 125 129 130 125 123 122 122 123 123 123 125 126 126 124 124 124 133 143 280 287 293 299 306 314 312 318 306 304 304 302 300 299 302 307 309 309 307 305 308
110 116 120 121 125 129 127 120 118 117 118 118 117 116 117 116 118 118 118 123 127 272 298 298 300 296 301 308 313 316 311 309 308 305 304 303 309 310 312 313 307 305 308
109 113 113 112 118 124 121 114 112 115 117 115 113 112 111 109 113 116 117 114 22 310 311 309 311 305 305 302 313 317 314 312 307 305 305 307 311 313 315 312 308 309 310
105 109 111 109 109 113 117 114 117 120 117 114 112 110 108 106 111 113 112 94 338 322 318 314 312 314 316 316 317 316 314 314 309 304 306 309 311 315 313 309 311 312 307
105 110 110 107 105 105 107 112 118 119 116 115 114 115 114 112 107 97 70 360 340 326 317 316 316 317 315 318 323 321 318 317 314 312 309 310 311 310 306 308 310 307 303
105 106 106 106 107 107 107 111 117 119 115 113 113 112 108 109 100 75 30 340 336 325 321 323 321 317 316 322 323 320 318 318 316 317 309 308 312 314 315 314 313 311 309
107 106 106 107 109 108 106 107 113 118 117 115 113 109 106 96 69 22 349 251 299 321 320 322 322 316 314 319 322 322 322 322 322 318 308 311 314 313 315 315 313 312 311